Home > Weather > Ruda Śląska > Past weeks

Flag for Poland Past Weather in Ruda Śląska, Poland — Yesterday and Last 2 Weeks

Now
70 °F

Sunny.


Feels Like: 70 °F
Forecast: 60 / 85 °F
Wind: 6 mph from Northeast

Location: Katowice Airport

Current Time: Jul 23, 2016 at 9:18:42 PM

Latest Report: Jul 23, 2016 at 9:00 PM


Visibility: 10 mi

Pressure: 30.07 "Hg

Humidity: 73%

Dew Point: 61 °F

Location of Ruda ŚląskaLocation

Past Weather in Ruda Śląska — Graph

°F

Ruda Śląska Temperature Yesterday

Maximum temperature yesterday: 79 °F (at 3:30 PM)
Minimum temperature yesterday: 52 °F (at 5:00 AM)
Average temperature yesterday: 67 °F

High & Low Weather Summary for the Past Weeks

 TemperatureHumidityPressure
High90 °F (Jul 11, 3:00 PM)100% (Jul 12, 9:30 AM)30.21 "Hg (Jul 12, 9:30 AM)
Low46 °F (Jul 21, 4:00 AM)36% (Jul 22, 6:30 PM)29.59 "Hg (Jul 14, 10:00 AM)
Average64 °F77%30.00 "Hg
* Reported Jul 8 8:00 PM — Jul 23 8:00 PM, Ruda Śląska, Weather by CustomWeather, © 2016

Note: Actual official high and low records may vary slightly from our data, if they occured in-between our weather recording intervals... More about our weather records

Advertising

Ruda Śląska Weather History for the Previous 24 Hours

Scroll right to see more
 ConditionsComfort  
Time TempWeatherWind HumidityBarometerVisibility
8:00 PM
Sat, Jul 23
72 °FSunny.6 mph69%30.07 "Hg10 mi
7:30 PM73 °FSunny.7 mph65%30.07 "Hg10 mi
7:00 PM75 °FSunny.7 mph61%30.07 "Hg10 mi
6:30 PM77 °FSunny.6 mph54%30.07 "Hg10 mi
6:00 PM77 °FPassing clouds.6 mph54%30.07 "HgN/A
5:30 PM77 °FPassing clouds.8 mph54%30.07 "HgN/A
5:00 PM79 °FPassing clouds.7 mph51%30.07 "HgN/A
4:30 PM77 °FPassing clouds.5 mph51%30.07 "HgN/A
4:00 PM79 °FPassing clouds.6 mph45%30.07 "HgN/A
3:30 PM79 °FPassing clouds.6 mph45%30.07 "HgN/A
3:00 PM79 °FPassing clouds.6 mph45%30.07 "HgN/A
2:30 PM79 °FPassing clouds.5 mph48%30.07 "HgN/A
2:00 PM79 °FPassing clouds.6 mph45%30.07 "HgN/A
1:30 PM79 °FSunny.3 mph42%30.07 "Hg10 mi
1:00 PM77 °FPassing clouds.6 mph44%30.07 "HgN/A
12:30 PM77 °FSunny.2 mph44%30.07 "Hg10 mi
12:00 PM77 °FSunny.3 mph47%30.07 "Hg10 mi
11:30 AM77 °FPassing clouds.5 mph44%30.07 "HgN/A
11:00 AM75 °FSunny.3 mph50%30.07 "Hg10 mi
10:30 AM75 °FSunny.3 mph50%30.07 "Hg10 mi
10:00 AM73 °FPassing clouds.5 mph50%30.07 "HgN/A
9:30 AM73 °FPassing clouds.3 mph50%30.07 "HgN/A
9:00 AM72 °FPassing clouds.3 mph53%30.07 "HgN/A
8:30 AM68 °FSunny.5 mph69%30.07 "Hg10 mi
8:00 AM66 °FSunny.6 mph68%30.07 "Hg10 mi
7:30 AM63 °FPassing clouds.3 mph77%30.07 "HgN/A
7:00 AM57 °FSunny.2 mph82%30.07 "Hg10 mi
6:30 AM54 °FSunny.1 mph88%30.07 "Hg10 mi
6:00 AM48 °FSunny.1 mph94%30.07 "Hg10 mi
5:30 AM46 °FClear.1 mph100%30.07 "Hg10 mi
5:00 AM48 °FClear.2 mph94%30.04 "Hg10 mi
4:30 AM46 °FClear.1 mph100%30.04 "Hg10 mi
4:00 AM48 °FPassing clouds.3 mph94%30.04 "HgN/A
3:30 AM48 °FClear.2 mph100%30.04 "Hg10 mi
3:00 AM50 °FClear.2 mph88%30.04 "Hg10 mi
2:30 AM50 °FClear.5 mph94%30.04 "Hg10 mi
2:00 AM50 °FClear.1 mph94%30.07 "Hg10 mi
1:30 AM52 °FClear.1 mph88%30.04 "Hg10 mi
1:00 AM52 °FClear.2 mph88%30.04 "Hg10 mi
12:30 AM54 °FClear.2 mph82%30.04 "Hg10 mi
12:00 AM54 °FClear.2 mph82%30.07 "Hg10 mi
11:30 PM
Fri, Jul 22
55 °FClear.2 mph82%30.04 "Hg10 mi
11:00 PM57 °FClear.2 mph72%30.04 "Hg10 mi
10:30 PM57 °FClear.2 mph77%30.04 "Hg10 mi
10:00 PM61 °FClear.5 mph72%30.04 "Hg10 mi
9:30 PM61 °FSunny.3 mph68%30.04 "Hg10 mi
9:00 PM68 °FSunny.5 mph56%30.04 "Hg10 mi
Weather by CustomWeather, © 2016

See weather overviewHow to use our weather pages